Location: ?
(35.4554°N, 139.3092°E)
Time: 21:53:43
(UTC+00:00)

Cosmos 1900 - Pass Details

Date: 21 April 2021
Orbit: 686 x 736 km, 66.1° (Epoch: 10 May)

Event Time Altitude Azimuth Distance (km) Brightness Sun altitude
Exits shadow 17:55:37 65° 196° (SSW) 808 4.3 -23.9°
Maximum altitude 17:56:24 85° 117° (ESE) 740 4.3 -23.8°
Drops below altitude 10° 18:01:31 10° 29° (NNE) 2,230 7.8 -22.9°
Sets 18:03:52 0° 29° (NNE) 3,149 8.7 -22.6°
